Home   Weather   Kalispell   Past weeks

Flag for USA Past Weather in Kalispell, Montana, USA — Yesterday and Last 2 Weeks

Now
58 °F

Clear.


Feels Like: 56 °F
Forecast: 44 / 78 °F
Wind: 8 mph from North

Location: Kalispell - Glacier Park International

Current Time: Sep 29, 2016 at 2:33:54 AM

Latest Report: Sep 29, 2016 at 1:55 AM


Visibility: 10 mi

Pressure: 29.97 "Hg (26.93 "Hg at 902m altitude)

Humidity: 58%

Dew Point: 43 °F

Location of KalispellLocation

Past Weather in Kalispell — Graph

°F

Kalispell Temperature Yesterday

Maximum temperature yesterday: 77 °F (at 4:55 PM)
Minimum temperature yesterday: 54 °F (at 7:55 AM)
Average temperature yesterday: 63 °F

High & Low Weather Summary for the Past Weeks

 TemperatureHumidityPressure
High82 °F (Sep 27, 5:55 PM)100% (Sep 15, 4:55 AM)30.46 "Hg (Sep 15, 4:55 AM)
Low28 °F (Sep 14, 5:55 AM)25% (Sep 14, 4:55 PM)29.76 "Hg (Sep 18, 1:55 AM)
Average54 °F65%30.07 "Hg
* Reported Sep 14 12:55 AM — Sep 29 12:55 AM, Kalispell, Weather by CustomWeather, © 2016

Note: Actual official high and low records may vary slightly from our data, if they occured in-between our weather recording intervals... More about our weather records

Advertising

Kalispell Weather History for the Previous 24 Hours

Scroll right to see more
 ConditionsComfort  
Time TempWeatherWind HumidityBarometerVisibility
12:55 AM
Thu, Sep 29
59 °FClear.12 mph56%29.98 "Hg10 mi
11:55 PM
Wed, Sep 28
59 °FClear.8 mph56%29.99 "Hg10 mi
10:55 PM59 °FClear.3 mph58%30.00 "Hg10 mi
9:55 PM58 °FClear.3 mph65%29.99 "Hg10 mi
8:55 PM58 °FClear.6 mph60%29.99 "Hg10 mi
7:55 PM59 °FClear.No wind60%30.00 "Hg10 mi
6:55 PM71 °FSunny.3 mph39%29.98 "Hg10 mi
5:55 PM76 °FSunny.No wind31%29.98 "Hg10 mi
4:55 PM77 °FSunny.No wind30%29.99 "Hg10 mi
3:55 PM75 °FSunny.No wind31%30.01 "Hg10 mi
2:55 PM73 °FSunny.No wind33%30.03 "Hg10 mi
1:55 PM71 °FSunny.9 mph34%30.04 "Hg10 mi
12:55 PM69 °FSunny.9 mph36%30.06 "Hg10 mi
11:55 AM67 °FSunny.10 mph39%30.09 "Hg10 mi
10:55 AM64 °FSunny.10 mph41%30.12 "Hg10 mi
9:55 AM60 °FPassing clouds.15 mph46%30.13 "Hg10 mi
8:55 AM58 °FSunny.15 mph47%30.12 "Hg10 mi
7:55 AM54 °FSunny.13 mph53%30.11 "Hg10 mi
6:55 AM55 °FClear.16 mph53%30.10 "Hg10 mi
5:55 AM56 °FClear.9 mph53%30.09 "Hg10 mi
4:55 AM57 °FClear.13 mph51%30.08 "Hg10 mi
3:55 AM58 °FClear.10 mph50%30.07 "Hg10 mi
2:55 AM59 °FClear.17 mph48%30.06 "Hg10 mi
Weather by CustomWeather, © 2016

See weather overviewHow to use our weather pages